GW5352 Weather Reports


time (UTC)temp
C
wind
direction
speed
KPH
gust
KPH
rain 1hr
cm
rain 24hr
cm
rain mn
cm
humidity
%
barometer
mb
20260507054520 5 192 1.6 6.4 0.05 0.20 0.20 88 1015.1
20260507054012 4 211 1.6 6.4 0.08 0.20 0.20 88 1015.1
20260507053507 4 181 1.6 4.8 0.10 0.18 0.18 89 1015.1
20260507053044 4 226 1.6 8.0 0.13 0.18 0.18 89 1015.0
20260507052510 4 227 1.6 8.0 0.13 0.18 0.18 90 1015.0
20260507052010 4 251 3.2 8.0 0.13 0.18 0.18 90 1015.1
20260507051527 4 136 0.0 6.4 0.13 0.18 0.18 90 1015.0
20260507051009 4 164 0.0 4.8 0.13 0.18 0.18 90 1014.9
20260507050510 4 98 1.6 9.7 0.15 0.18 0.18 89 1014.8
20260507050021 4 98 3.2 9.7 0.15 0.18 0.18 89 1014.9
20260507045510 4 132 4.8 14.5 0.15 0.18 0.18 89 1014.9
20260507045009 4 158 4.8 16.1 0.15 0.18 0.18 88 1015.0
20260507044517 4 158 6.4 19.3 0.13 0.15 0.15 87 1015.1
20260507044010 4 209 8.0 19.3 0.10 0.13 0.13 87 1015.1
20260507043508 4 231 8.0 19.3 0.05 0.08 0.08 86 1015.0
20260507043025 4 232 9.7 24.1 0.03 0.05 0.05 86 1014.9
20260507042509 5 212 8.0 22.5 0.03 0.05 0.05 85 1015.0
20260507042008 5 198 4.8 20.9 0.05 0.05 0.05 85 1015.0
20260507041525 5 249 8.0 20.9 0.05 0.05 0.05 84 1015.0
20260507041010 5 219 8.0 22.5 0.05 0.05 0.05 83 1014.9
20260507040512 5 252 9.7 22.5 0.03 0.03 0.03 82 1014.8
20260507040028 6 232 8.0 24.1 0.03 0.03 0.03 80 1014.7
20260507035510 6 219 8.0 24.1 0.03 0.03 0.03 80 1014.6
20260507035006 6 211 9.7 22.5 0.03 0.03 0.03 79 1014.5
20260507034532 6 225 1.6 8.0 0.03 0.03 0.03 79 1014.5
20260507034005 6 242 3.2 3.2 0.03 0.03 0.03 77 1014.3
20260507033507 6 272 1.6 4.8 0.03 0.03 0.03 78 1014.0
20260507033032 6 175 0.0 6.4 0.03 0.03 0.03 77 1014.0
20260507032509 6 244 1.6 6.4 0.03 0.03 0.03 77 1014.0
20260507032011 7 166 0.0 6.4 0.00 0.00 0.00 76 1014.0
20260507031516 7 219 3.2 6.4 0.00 0.00 0.00 77 1013.9
20260507031013 7 241 1.6 6.4 0.00 0.00 0.00 78 1013.9
20260507030510 7 244 3.2 6.4 0.00 0.00 0.00 76 1013.9
20260507030027 7 259 1.6 6.4 0.00 0.00 0.00 74 1013.8
20260507025508 7 232 1.6 6.4 0.00 0.00 0.00 75 1013.8
20260507025012 7 246 4.8 6.4 0.00 0.00 0.00 74 1013.7
20260507024526 7 203 3.2 3.2 0.00 0.00 0.00 75 1013.7
20260507024007 7 266 0.0 4.8 0.00 0.00 0.00 74 1013.7
20260507023506 7 225 1.6 4.8 0.00 0.00 0.00 72 1013.6
20260507023027 7 242 1.6 6.4 0.00 0.00 0.00 75 1013.6
20260507022508 7 229 3.2 6.4 0.00 0.00 0.00 76 1013.6
20260507022009 7 249 3.2 4.8 0.00 0.00 0.00 76 1013.5
20260507021526 7 236 1.6 9.7 0.00 0.00 0.00 76 1013.4
20260507021012 7 249 3.2 9.7 0.00 0.00 0.00 77 1013.5
20260507020510 7 274 3.2 6.4 0.00 0.00 0.00 76 1013.5
20260507020022 7 286 3.2 6.4 0.00 0.00 0.00 75 1013.5
20260507015508 7 260 3.2 8.0 0.00 0.00 0.00 75 1013.5
20260507015017 7 269 4.8 9.7 0.00 0.00 0.00 75 1013.5
20260507014518 7 253 1.6 12.9 0.00 0.00 0.00 77 1013.5
20260507014012 7 304 6.4 12.9 0.00 0.00 0.00 75 1013.5
20260507013505 7 226 4.8 11.3 0.00 0.00 0.00 74 1013.5
20260507013026 7 261 1.6 14.5 0.00 0.00 0.00 75 1013.5
20260507012508 7 286 4.8 14.5 0.00 0.00 0.00 74 1013.5
20260507012004 7 240 8.0 14.5 0.00 0.00 0.00 71 1013.4
20260507011514 7 259 8.0 14.5 0.00 0.00 0.00 70 1013.5
20260507011004 7 238 6.4 16.1 0.00 0.00 0.00 71 1013.5
20260507010503 7 262 6.4 19.3 0.00 0.00 0.00 74 1013.5
20260507010006 7 226 9.7 19.3 0.00 0.00 0.00 70 1013.5
20260507005508 7 264 6.4 22.5 0.00 0.00 0.00 73 1013.4
20260507005003 8 348 8.0 22.5 0.00 0.00 0.00 71 1013.4
20260507004507 7 263 4.8 14.5 0.00 0.00 0.00 74 1013.4
20260507004003 8 327 4.8 12.9 0.00 0.00 0.00 73 1013.3
20260507003503 8 291 6.4 12.9 0.00 0.00 0.00 73 1013.3
20260507003004 8 267 6.4 14.5 0.00 0.00 0.00 73 1013.3
20260507002501 7 298 9.7 14.5 0.00 0.00 0.00 74 1013.2
20260507002003 7 244 6.4 12.9 0.00 0.00 0.00 72 1013.3
20260507001504 7 309 9.7 12.9 0.00 0.00 0.00 73 1013.2
20260507001002 8 268 6.4 16.1 0.00 0.00 0.00 72 1013.1
20260507000503 7 252 9.7 16.1 0.00 0.00 0.00 71 1013.2
20260507000007 8 244 8.0 14.5 0.00 0.00 0.00 72 1013.1
20260506235505 8 252 8.0 17.7 0.00 0.00 0.00 70 1013.1
20260506235003 8 302 6.4 17.7 0.00 0.00 0.00 72 1013.0
20260506234503 8 269 11.3 17.7 0.00 0.00 0.00 71 1013.1
20260506234003 8 334 9.7 16.1 0.00 0.00 0.00 71 1013.0
20260506233502 8 283 9.7 17.7 0.00 0.00 0.00 71 1013.0
20260506233009 8 267 8.0 17.7 0.00 0.00 0.00 72 1013.0
20260506232505 8 263 6.4 16.1 0.00 0.00 0.00 71 1013.0
20260506232006 8 281 6.4 17.7 0.00 0.00 0.00 70 1013.0
20260506231524 8 306 9.7 17.7 0.00 0.00 0.00 69 1013.0
20260506231005 8 292 4.8 19.3 0.00 0.00 0.00 68 1012.9
20260506230502 8 276 9.7 24.1 0.00 0.00 0.00 67 1012.9
20260506230008 8 222 14.5 24.1 0.00 0.00 0.00 63 1012.8
20260506225502 8 238 6.4 19.3 0.00 0.00 0.00 67 1012.9
20260506225003 8 231 8.0 19.3 0.00 0.00 0.00 65 1012.8
20260506224506 8 191 9.7 25.7 0.00 0.00 0.00 66 1012.7
20260506224007 8 240 14.5 25.7 0.00 0.00 0.00 65 1012.8
20260506223505 8 242 12.9 25.7 0.00 0.00 0.00 65 1012.7
20260506223007 7 244 9.7 24.1 0.00 0.00 0.00 65 1012.7
20260506222504 7 256 9.7 27.4 0.00 0.00 0.00 64 1012.6
20260506222006 8 244 16.1 29.0 0.00 0.00 0.00 63 1012.6
20260506221512 8 286 14.5 29.0 0.00 0.00 0.00 62 1012.6
20260506221004 8 220 14.5 27.4 0.00 0.00 0.00 61 1012.5
20260506220507 8 296 8.0 17.7 0.00 0.00 0.00 62 1012.5
20260506220022 8 277 9.7 17.7 0.00 0.00 0.00 63 1012.5
20260506215507 8 348 6.4 12.9 0.00 0.00 0.00 64 1012.4
20260506215002 8 338 6.4 11.3 0.00 0.00 0.00 65 1012.4
20260506214509 8 13 4.8 12.9 0.00 0.00 0.00 65 1012.4
20260506214003 8 14 4.8 14.5 0.00 0.00 0.00 67 1012.3
20260506213503 8 273 6.4 14.5 0.00 0.00 0.00 65 1012.3
20260506213010 8 292 4.8 16.1 0.00 0.00 0.00 66 1012.2
20260506212504 8 329 8.0 16.1 0.00 0.00 0.00 66 1012.2
20260506212004 8 360 8.0 14.5 0.00 0.00 0.00 66 1012.2
20260506211509 8 9 6.4 14.5 0.00 0.00 0.00 65 1012.2
20260506211003 8 17 4.8 9.7 0.00 0.00 0.00 65 1012.1
20260506210502 8 18 3.2 9.7 0.00 0.00 0.00 66 1012.0
20260506210012 8 11 4.8 9.7 0.00 0.00 0.00 65 1012.0
20260506205506 8 327 3.2 8.0 0.00 0.00 0.00 65 1012.0
20260506205006 8 310 1.6 9.7 0.00 0.00 0.00 66 1012.0
20260506204509 8 167 1.6 9.7 0.00 0.00 0.00 66 1012.0
20260506204010 8 337 1.6 8.0 0.00 0.00 0.00 66 1011.9
20260506203504 8 322 3.2 8.0 0.00 0.00 0.00 67 1012.0
20260506203004 8 300 3.2 12.9 0.00 0.00 0.00 68 1012.0
20260506202503 7 28 4.8 14.5 0.00 0.00 0.00 68 1011.9
20260506202007 8 5 3.2 14.5 0.00 0.00 0.00 68 1011.8
20260506201506 8 5 4.8 12.9 0.00 0.00 0.00 67 1011.8
20260506201004 8 295 4.8 12.9 0.00 0.00 0.00 69 1011.7
20260506200503 8 331 4.8 12.9 0.00 0.00 0.00 69 1011.7
20260506200012 7 326 4.8 12.9 0.00 0.00 0.00 69 1011.6
20260506195502 7 248 6.4 11.3 0.00 0.00 0.00 69 1011.6
20260506195003 7 291 6.4 12.9 0.00 0.00 0.00 69 1011.6
20260506194508 7 314 4.8 12.9 0.00 0.00 0.00 71 1011.5
20260506194004 7 321 6.4 12.9 0.00 0.00 0.00 69 1011.6
20260506193507 7 333 6.4 14.5 0.00 0.00 0.00 70 1011.5
20260506193008 7 323 6.4 16.1 0.00 0.00 0.00 70 1011.5
20260506192507 7 286 6.4 17.7 0.00 0.00 0.00 69 1011.5
20260506192008 7 311 9.7 17.7 0.00 0.00 0.00 69 1011.5
20260506191506 7 223 3.2 6.4 0.00 0.00 0.00 65 1011.5
20260506191005 7 219 4.8 9.7 0.00 0.00 0.00 66 1011.5
20260506190504 8 238 4.8 9.7 0.00 0.00 0.00 65 1011.5
20260506190012 8 247 3.2 6.4 0.00 0.00 0.00 67 1011.5
20260506185505 7 209 1.6 4.8 0.00 0.00 0.00 67 1011.4
20260506185008 7 287 3.2 4.8 0.00 0.00 0.00 69 1011.4
20260506184516 7 234 1.6 4.8 0.00 0.00 0.00 70 1011.5
20260506184008 6 233 3.2 6.4 0.00 0.00 0.00 70 1011.5
20260506183505 6 238 3.2 6.4 0.00 0.00 0.00 71 1011.4
20260506183010 7 124 0.0 4.8 0.00 0.00 0.00 71 1011.4
20260506182504 6 136 0.0 4.8 0.00 0.00 0.00 71 1011.4
20260506182007 6 182 1.6 4.8 0.00 0.00 0.00 71 1011.4
20260506181512 6 209 1.6 4.8 0.00 0.00 0.00 71 1011.3
20260506181008 6 331 0.0 3.2 0.00 0.00 0.00 72 1011.3
20260506180506 6 252 1.6 3.2 0.00 0.00 0.00 73 1011.3
20260506180010 6 178 0.0 3.2 0.00 0.00 0.00 72 1011.3
20260506175506 6 143 1.6 3.2 0.00 0.00 0.00 73 1011.3
20260506175006 6 217 0.0 3.2 0.00 0.00 0.00 73 1011.2
20260506174510 6 132 0.0 3.2 0.00 0.00 0.00 74 1011.2
20260506174004 6 92 1.6 3.2 0.00 0.00 0.00 73 1011.2
20260506173505 6 107 0.0 3.2 0.00 0.00 0.00 74 1011.2
20260506173009 6 82 1.6 3.2 0.00 0.00 0.00 74 1011.2
20260506172506 5 148 0.0 3.2 0.00 0.00 0.00 75 1011.2
20260506172006 5 152 0.0 3.2 0.00 0.00 0.00 75 1011.1
20260506171510 5 170 0.0 0.0 0.00 0.00 0.00 75 1011.1
20260506171004 5 244 0.0 1.6 0.00 0.00 0.00 75 1011.1
20260506170505 5 210 0.0 3.2 0.00 0.00 0.00 76 1011.1
20260506170012 5 205 0.0 3.2 0.00 0.00 0.00 76 1011.0
20260506165511 5 229 1.6 3.2 0.00 0.00 0.00 76 1011.0
20260506165007 5 211 1.6 3.2 0.00 0.00 0.00 76 1010.8
20260506164506 5 148 0.0 4.8 0.00 0.00 0.00 76 1010.9
20260506164005 5 148 0.0 4.8 0.00 0.00 0.00 76 1010.8
20260506163504 5 136 0.0 3.2 0.00 0.00 0.00 76 1010.8
20260506163010 5 87 0.0 3.2 0.00 0.00 0.00 76 1010.7
20260506162505 5 105 0.0 4.8 0.00 0.00 0.00 77 1010.6
20260506162007 5 42 1.6 4.8 0.00 0.00 0.00 76 1010.6
20260506161518 5 72 1.6 4.8 0.00 0.00 0.00 76 1010.6
20260506161004 5 61 1.6 4.8 0.00 0.00 0.00 77 1010.6
20260506160510 5 82 0.0 4.8 0.00 0.00 0.00 77 1010.6
20260506160014 5 45 1.6 4.8 0.00 0.00 0.00 78 1010.5
20260506155506 4 32 1.6 8.0 0.00 0.00 0.00 78 1010.4
20260506155006 4 40 1.6 6.4 0.00 0.00 0.00 78 1010.4
20260506154510 4 44 3.2 6.4 0.00 0.00 0.00 78 1010.3
20260506154008 4 47 3.2 8.0 0.00 0.00 0.00 78 1010.4
20260506153504 4 39 3.2 8.0 0.00 0.00 0.00 78 1010.4
20260506153010 4 26 3.2 8.0 0.00 0.00 0.00 78 1010.4
20260506152505 4 13 4.8 8.0 0.00 0.00 0.00 78 1010.4
20260506152007 4 41 3.2 8.0 0.00 0.00 0.00 78 1010.4
20260506151517 4 26 4.8 8.0 0.00 0.00 0.00 78 1010.3
20260506151010 4 45 3.2 8.0 0.00 0.00 0.00 78 1010.3
20260506150506 3 40 1.6 6.4 0.00 0.00 0.00 78 1010.2
20260506150014 3 46 3.2 6.4 0.00 0.00 0.00 78 1010.2
20260506145508 3 45 1.6 6.4 0.00 0.00 0.00 78 1010.1
20260506145006 3 49 3.2 6.4 0.00 0.00 0.00 78 1010.0
20260506144520 3 47 3.2 6.4 0.00 0.00 0.00 78 1010.0
20260506144010 3 27 3.2 6.4 0.00 0.00 0.00 78 1010.0
20260506143506 3 37 1.6 6.4 0.00 0.00 0.00 78 1010.1
20260506143012 3 36 3.2 6.4 0.00 0.00 0.00 78 1010.1
20260506142508 3 29 3.2 4.8 0.00 0.00 0.00 78 1010.0
20260506142007 3 27 1.6 4.8 0.00 0.00 0.00 78 1010.0
20260506141512 3 37 1.6 4.8 0.00 0.00 0.00 78 1010.0
20260506141011 3 11 1.6 4.8 0.00 0.00 0.00 78 1010.0
20260506140512 3 20 1.6 3.2 0.00 0.00 0.00 78 1010.1
20260506140020 3 16 0.0 1.6 0.00 0.00 0.00 79 1010.1
20260506135506 3 16 0.0 3.2 0.00 0.00 0.00 79 1010.1
20260506135010 3 16 0.0 4.8 0.00 0.00 0.00 80 1010.1
20260506134512 3 360 3.2 4.8 0.00 0.00 0.00 80 1010.1
20260506134006 3 352 1.6 4.8 0.00 0.00 0.00 80 1010.0
20260506133509 2 26 0.0 3.2 0.00 0.00 0.00 81 1010.1
20260506133018 2 26 0.0 3.2 0.00 0.00 0.00 81 1010.0
20260506132507 2 86 0.0 0.0 0.00 0.00 0.00 81 1010.0
20260506132010 2 86 0.0 3.2 0.00 0.00 0.00 81 1009.9
20260506131518 2 127 0.0 3.2 0.00 0.00 0.00 81 1009.9
20260506131008 2 89 0.0 3.2 0.00 0.00 0.00 81 1009.9
20260506130505 2 62 0.0 3.2 0.00 0.00 0.00 80 1009.9
20260506130017 2 69 1.6 3.2 0.00 0.00 0.00 80 1009.9
20260506125508 2 86 1.6 3.2 0.00 0.00 0.00 80 1009.8
20260506125005 2 120 0.0 0.0 0.00 0.00 0.00 80 1009.8
20260506124515 2 95 0.0 0.0 0.00 0.00 0.00 80 1009.7
20260506124010 2 95 0.0 0.0 0.00 0.00 0.00 80 1009.7
20260506123512 2 126 0.0 0.0 0.00 0.00 0.00 79 1009.7
20260506123019 2 126 0.0 3.2 0.00 0.00 0.00 78 1009.7
20260506122507 3 88 0.0 3.2 0.00 0.00 0.00 79 1009.6
20260506122014 3 86 0.0 3.2 0.00 0.00 0.00 78 1009.6
20260506121514 3 86 0.0 3.2 0.00 0.00 0.00 78 1009.5
20260506121005 3 102 0.0 0.0 0.00 0.00 0.00 78 1009.5
20260506120508 3 102 0.0 0.0 0.00 0.00 0.00 78 1009.5
20260506120026 3 102 0.0 0.0 0.00 0.00 0.00 78 1009.5
20260506115509 3 102 0.0 0.0 0.00 0.00 0.00 78 1009.5
20260506115006 3 102 0.0 1.6 0.00 0.00 0.00 78 1009.5
20260506114513 3 102 0.0 1.6 0.00 0.00 0.00 78 1009.4
20260506114007 3 109 1.6 3.2 0.00 0.00 0.00 77 1009.4
20260506113507 2 119 0.0 3.2 0.00 0.00 0.00 77 1009.4
20260506113022 2 119 1.6 3.2 0.00 0.00 0.00 76 1009.5
20260506112509 3 131 1.6 3.2 0.00 0.00 0.00 75 1009.5
20260506112007 3 315 0.0 3.2 0.00 0.00 0.00 75 1009.5
20260506111517 3 315 1.6 3.2 0.00 0.00 0.00 75 1009.5
20260506111008 4 329 1.6 3.2 0.00 0.00 0.00 74 1009.5
20260506110508 4 309 1.6 3.2 0.00 0.00 0.00 74 1009.5
20260506110019 4 317 0.0 3.2 0.00 0.00 0.00 74 1009.5
20260506105509 3 336 1.6 3.2 0.00 0.00 0.00 73 1009.4
20260506105012 3 342 1.6 3.2 0.00 0.00 0.00 71 1009.4
20260506104519 4 321 0.0 3.2 0.00 0.00 0.00 70 1009.5
20260506104012 5 322 0.0 3.2 0.00 0.00 0.00 69 1009.4
20260506103508 5 323 1.6 4.8 0.00 0.00 0.00 69 1009.4
20260506103018 5 295 1.6 9.7 0.00 0.00 0.00 69 1009.3
20260506102507 5 292 4.8 9.7 0.00 0.00 0.00 69 1009.3
20260506102010 4 253 3.2 6.4 0.00 0.00 0.00 70 1009.3
20260506101522 3 265 1.6 4.8 0.00 0.00 0.00 71 1009.3
20260506101008 3 13 0.0 0.0 0.00 0.00 0.00 70 1009.3
20260506100511 4 13 0.0 0.0 0.00 0.00 0.00 68 1009.3
20260506100020 4 13 0.0 0.0 0.00 0.00 0.00 68 1009.3
20260506095506 4 13 0.0 0.0 0.00 0.00 0.00 69 1009.2
20260506095007 4 13 0.0 3.2 0.00 0.00 0.00 70 1009.1
20260506094519 4 13 0.0 3.2 0.00 0.00 0.00 70 1009.0
20260506094005 3 327 1.6 3.2 0.00 0.00 0.00 71 1009.0
20260506093507 3 242 3.2 3.2 0.00 0.00 0.00 70 1008.9
20260506093014 4 15 0.0 3.2 0.00 0.00 0.00 67 1008.9
20260506092505 4 15 1.6 3.2 0.00 0.00 0.00 67 1008.9
20260506092007 4 19 0.0 3.2 0.00 0.00 0.00 67 1008.9
20260506091517 4 45 1.6 3.2 0.00 0.00 0.00 68 1008.9
20260506091007 4 44 0.0 1.6 0.00 0.00 0.00 68 1008.7
20260506090507 4 5 0.0 1.6 0.00 0.00 0.00 69 1008.7
20260506090020 4 5 0.0 1.6 0.00 0.00 0.00 69 1008.7
20260506085507 4 5 0.0 3.2 0.00 0.00 0.00 69 1008.6
20260506085009 4 5 1.6 3.2 0.00 0.00 0.00 69 1008.6
20260506084525 4 334 0.0 3.2 0.00 0.00 0.00 69 1008.6
20260506084002 4 326 0.0 3.2 0.00 0.00 0.00 69 1008.6
20260506083503 4 326 0.0 4.8 0.00 0.00 0.00 69 1008.5
20260506083011 3 329 3.2 4.8 0.00 0.00 0.00 70 1008.5
20260506082507 3 9 1.6 3.2 0.00 0.00 0.00 70 1008.5
20260506082006 3 175 0.0 3.2 0.00 0.00 0.00 71 1008.3
20260506081517 3 146 1.6 3.2 0.00 0.00 0.00 71 1008.3
20260506081009 3 249 1.6 4.8 0.00 0.00 0.00 71 1008.3
20260506080507 3 152 1.6 4.8 0.00 0.00 0.00 71 1008.1
20260506073511 5 91 3.2 8.0 0.00 0.00 0.00 62 1007.8
20260506073014 5 79 4.8 11.3 0.00 0.00 0.00 63 1007.8
20260506072507 5 106 4.8 11.3 0.00 0.00 0.00 63 1007.8
20260506072007 5 48 1.6 3.2 0.00 0.00 0.00 63 1007.8
20260506071509 5 116 0.0 3.2 0.00 0.00 0.00 63 1007.8
20260506071008 5 116 0.0 4.8 0.00 0.00 0.00 63 1007.8
20260506070507 6 113 1.6 4.8 0.00 0.00 0.00 62 1007.8